RH
47 47 45 42 40 36 33 30 26 23 19 18 17 17 16 24 24 28 31 33 34 33 33 32 31 31 30
48 48 44 42 37 33 30 27 24 23 21 21 19 19 20 21 25 29 27 27 31 33 33 32 30 31 31
49 48 44 41 37 33 31 28 26 25 24 22 20 18 18 25 25 30 26 23 22 23 23 22 24 25 30
50 46 43 41 37 34 31 30 27 26 24 23 22 21 19 22 25 23 19 17 16 16 23 23 22 22 24
51 48 44 42 40 38 36 33 30 28 26 24 22 21 21 21 20 18 17 16 16 22 24 28 31 31 31
62 57 53 49 48 46 43 39 37 33 29 25 26 24 22 19 19 19 18 24 25 28 33 33 33 34 37
64 60 60 57 54 50 46 44 41 37 37 28 25 23 24 23 25 25 24 28 28 34 36 35 37 39 41
59 58 57 56 57 55 50 44 35 32 36 36 37 33 32 30 31 30 30 31 30 31 36 35 36 38 42
63 58 58 61 60 56 49 50 49 46 47 48 43 41 37 33 30 30 31 31 37 36 36 36 38 44 45
61 58 61 61 62 64 64 63 57 48 46 50 46 44 40 35 33 32 31 32 32 36 39 41 40 41 38
69 65 62 59 58 56 54 54 50 46 42 59 53 47 50 42 39 39 41 40 43 41 38 36 35 37 37
78 75 72 69 67 67 66 63 60 54 48 61 59 58 56 53 48 44 50 51 52 47 42 38 37 35 35
91 87 83 81 78 73 68 69 68 65 61 64 67 68 70 66 66 57 58 52 52 51 45 41 35 32 28
85 81 81 80 77 78 77 76 77 69 67 69 74 80 75 72 71 62 59 58 49 47 42 35 30 27 28
80 79 81 85 87 87 86 85 85 75 71 77 82 84 80 76 72 67 56 50 43 39 36 32 28 29 33
80 81 84 88 90 91 90 89 86 85 84 85 88 87 77 64 71 62 53 45 35 34 36 39 31 27 29
82 84 87 87 88 91 92 96 94 92 89 88 84 80 73 65 49 53 47 39 40 37 36 39 41 40 48